TimeAST,TemperatureF,Dew PointF,Humidity,Sea Level PressureIn,VisibilityMPH,Wind Direction,Wind SpeedMPH,Gust SpeedMPH,PrecipitationIn,Events,Conditions,WindDirDegrees,DateUTC
12:00 AM,78.8,73.4,83,29.86,6.2,Calm,Calm,-,N/A,,Partly Cloudy,0,2012-11-08 04:00:00
1:00 AM,78.8,73.4,83,29.86,6.2,Calm,Calm,-,N/A,,Partly Cloudy,0,2012-11-08 05:00:00
2:00 AM,77.0,73.4,89,29.83,6.2,Calm,Calm,-,N/A,,Partly Cloudy,0,2012-11-08 06:00:00
3:00 AM,77.0,73.4,89,29.83,6.2,Calm,Calm,-,N/A,,Partly Cloudy,0,2012-11-08 07:00:00
4:00 AM,77.0,73.4,89,29.83,6.2,Calm,Calm,-,N/A,,Partly Cloudy,0,2012-11-08 08:00:00
5:00 AM,77.0,73.4,89,29.83,6.2,Calm,Calm,-,N/A,,Partly Cloudy,0,2012-11-08 09:00:00
6:00 AM,77.0,73.4,89,29.86,6.2,Calm,Calm,-,N/A,,Partly Cloudy,0,2012-11-08 10:00:00
7:00 AM,78.8,75.2,89,29.86,6.2,Calm,Calm,-,N/A,,Partly Cloudy,0,2012-11-08 11:00:00
8:00 AM,84.2,78.8,84,29.89,5.6,NE,8.1,-,N/A,,Partly Cloudy,50,2012-11-08 12:00:00
9:00 AM,84.2,78.8,84,29.92,6.2,ENE,11.5,-,N/A,,Scattered Clouds,60,2012-11-08 13:00:00
10:00 AM,80.6,78.8,94,29.92,5.6,NNE,5.8,-,N/A,,Mostly Cloudy,30,2012-11-08 14:00:00
11:00 AM,84.2,78.8,84,29.89,6.2,North,6.9,-,N/A,,Mostly Cloudy,360,2012-11-08 15:00:00
12:00 PM,84.2,78.8,84,29.89,2.2,East,15.0,-,N/A,Rain,Light Rain Showers,90,2012-11-08 16:00:00
1:00 PM,86.0,77.0,74,29.86,4.3,East,17.3,-,N/A,,Mostly Cloudy,90,2012-11-08 17:00:00
2:00 PM,87.8,78.8,75,29.83,3.1,East,17.3,-,N/A,,Mostly Cloudy,90,2012-11-08 18:00:00
3:00 PM,84.2,77.0,79,29.83,5.0,East,15.0,-,N/A,,Mostly Cloudy,100,2012-11-08 19:00:00
4:00 PM,80.6,77.0,89,29.83,6.2,ESE,8.1,-,N/A,,Scattered Clouds,110,2012-11-08 20:00:00
6:00 PM,80.6,75.2,84,29.83,6.2,Calm,Calm,-,N/A,,Scattered Clouds,0,2012-11-08 22:00:00
7:00 PM,78.8,75.2,89,29.83,6.2,Calm,Calm,-,N/A,,Scattered Clouds,0,2012-11-08 23:00:00
10:00 PM,78.8,77.0,94,29.86,6.2,NNE,5.8,-,N/A,,Scattered Clouds,30,2012-11-09 02:00:00
11:00 PM,78.8,77.0,94,29.86,5.0,ENE,9.2,-,N/A,,Scattered Clouds,70,2012-11-09 03:00:00